This is the latest recevied weather packets stored in our database for station/object SP9KB-13. If no packets are shown the sender has not sent any weather packets the latest 10 day(s).
| Time | Temp. | Humidity | Pressure | Rain* | Wind** | Luminosity | Snow |
|---|---|---|---|---|---|---|---|
| 1777707732 | 13.89° C | 51% | 1006.4 hPa | 0 mm | - | - | - |
| 1777707432 | 14.44° C | 53% | 1006.4 hPa | 0 mm | - | - | - |
| 1777707131 | 13.89° C | 53% | 1006.6 hPa | 0 mm | - | - | - |
| 1777706831 | 13.89° C | 52% | 1006.6 hPa | 0 mm | - | - | - |
| 1777706530 | 13.89° C | 54% | 1006.4 hPa | 0 mm | - | - | - |
| 1777706230 | 14.44° C | 55% | 1006.4 hPa | 0 mm | - | - | - |
| 1777705929 | 13.33° C | 58% | 1006.4 hPa | 0 mm | - | - | - |
| 1777705628 | 13.33° C | 56% | 1006.4 hPa | 0 mm | - | - | - |
| 1777705328 | 13.33° C | 57% | 1006.6 hPa | 0 mm | - | - | - |
| 1777705027 | 13.33° C | 59% | 1006.5 hPa | 0 mm | - | - | - |
| 1777704727 | 13.33° C | 59% | 1006.4 hPa | 0 mm | - | - | - |
| 1777704426 | 12.78° C | 59% | 1006.5 hPa | 0 mm | - | - | - |
| 1777704126 | 12.78° C | 61% | 1006.7 hPa | 0 mm | - | - | - |
| 1777703825 | 12.78° C | 61% | 1006.5 hPa | 0 mm | - | - | - |
| 1777703525 | 12.22° C | 64% | 1006.6 hPa | 0 mm | - | - | - |
| 1777703224 | 12.78° C | 64% | 1006.5 hPa | 0 mm | - | - | - |
| 1777702924 | 12.22° C | 66% | 1006.6 hPa | 0 mm | - | - | - |
| 1777702623 | 11.67° C | 66% | 1006.4 hPa | 0 mm | - | - | - |
| 1777702323 | 11.11° C | 69% | 1006.5 hPa | 0 mm | - | - | - |
| 1777702022 | 10.56° C | 69% | 1006.4 hPa | 0 mm | - | - | - |
| 1777701722 | 10.56° C | 69% | 1006.4 hPa | 0 mm | - | - | - |
| 1777701421 | 10° C | 71% | 1006.3 hPa | 0 mm | - | - | - |
| 1777701121 | 10° C | 70% | 1006.4 hPa | 0 mm | - | - | - |
| 1777700820 | 9.44° C | 70% | 1006.4 hPa | 0 mm | - | - | - |
| 1777700520 | 9.44° C | 73% | 1006.4 hPa | 0 mm | - | - | - |
* Rain latest hour (hover to see other rain measurements)
** Current wind speed in m/s (hover to see current wind gust speed)